Weather in Tinghir

Morocco     31°31′17″N   5°31′32″W
temp.,
°C
wind,
m/s
gust,
m/s
humid.,
%
clouds,
%
prec.,
mm/h
press.,
hPa
HPBL,
m
13 june, sun
sun1301:00+24ne681548 0.0 1015130
04:00+20e22390 0.0 101614
07:00+20nne01370 0.0 101727
10:00+24e44340 0.0 1018949
13:00+29e58200 0.0 10162544
16:00+33s7860 0.0 10133765
19:00+32s6550 0.0 10123455
22:00+27ssw4570 0.0 101555
14 june, mon
mon1401:00+24nw33101 0.0 101511
04:00+22wnw122148 0.0 101511
07:00+22nnw11215 0.0 101611
10:00+27e441472 0.0 1017828
13:00+30e341095 0.0 10152479
16:00+34ese46524 0.0 10123882
19:00+33s547100 0.0 10113463
22:00+28ssw3410100 0.0 101339
15 june, tue
tue1501:00+26wnw2214100 0.0 101311
04:00+25wsw2218100 0.0 101311
07:00+24nnw1120100 0.0 101411
10:00+28ene21165 0.0 1014811
13:00+33e4781 0.0 10123797
16:00+35wsw67696 0.0 10094986
19:00+34wsw88998 0.0 10094605
22:00+29w7121392 0.0 1012612
16 june, wed
wed1601:00+26w441794 0.0 101453
04:00+24w332096 0.0 101321
07:00+23w33245 0.0 101331
10:00+29wsw8161588 0.0 10123392
13:00+30w151815100 0.0 10133435
16:00+28wsw15192096 0.1 10132791
19:00+28wsw12171651 0.1 10113469
22:00+25wsw6111766 0.0 1012455
17 june, thu
thu1701:00+22wnw44174 0.0 101137
04:00+20w33165 0.0 101023
07:00+19w33130 0.0 101123
10:00+26sw510618 0.0 10101001
13:00+31ssw1121560 0.0 10083697
16:00+32sw1324483 0.0 10074767
19:00+29sw10136100 0.0 10083205
22:00+25wsw5797 0.0 100991